Regional Weather Roundup
Issued by NWS State College, PA

Home | Current Version | Previous Version | Text Only | Print | Product List | Glossary On
Versions: 1 2 3 4 5 6 7 8 9 10 11 12 13 14 15 16 17 18 19 20 21 22 23 24 25 26 27 28 29 30 31 32 33 34 35 36 37 38 39 40 41 42 43 44 45 46 47 48 49 50
000
ASUS41 KCTP 251503
RWRCTP

REGIONAL WEATHER ROUNDUP
NATIONAL WEATHER SERVICE STATE COLLEGE PA
1100 AM EDT FRI JUL 25 2014

Note: "fair" indicates few or no clouds below 12,000 feet with no
significant weather and/or obstructions to visibility.

* = STATION THAT DOES NOT REPORT PRECIPITATION /E.G. RAIN...SNOW...ETC/
    THUNDER OR FOG.

PAZ002>004-007>009-013>016-020>023-029>032-251600-
WESTERN PENNSYLVANIA

CITY           SKY/WX    TMP DP  RH WIND       PRES   REMARKS
ERIE           SUNNY     71  50  47 W10G16    30.12R
MEADVILLE      SUNNY     67  49  52 W7        30.14R
FRANKLIN*      SUNNY     66  46  48 CALM      30.14R
NEW CASTLE       N/A     68  51  54 CALM      30.14R
BEAVER COUNTY  SUNNY     68  50  52 W3        30.14R
BUTLER*        MOSUNNY   66  52  59 NW6       30.15R
PITTSBURGH INT MOSUNNY   69  52  54 W6        30.14R
PITTSBURGH     SUNNY     68  49  50 CALM      30.13R
INDIANA*       SUNNY     68  52  56 VRB5      30.16R
LATROBE        MOSUNNY   68  57  68 W7        30.11F
WASHINGTON CO* SUNNY     68  54  60 W3        30.15R
$$

PAZ004>006-010>012-017>019-024>028-033>037-041-042-045-046-049>053-251600-
CENTRAL PENNSYLVANIA

CITY           SKY/WX    TMP DP  RH WIND       PRES   REMARKS
BRADFORD       SUNNY     65  47  52 VRB6      30.12S
DUBOIS         SUNNY     66  43  43 SW5       30.12R
CLEARFIELD     SUNNY     65  49  56 SW5       30.12F
JOHNSTOWN      SUNNY     64  49  57 CALM      30.12F
ALTOONA        SUNNY     69  50  50 VRB5      30.11F
STATE COLLEGE  NOT AVBL
WILLIAMSPORT   SUNNY     69  50  50 W3        30.07F
SELINSGROVE    SUNNY     71  53  52 CALM      30.09F
FT INDIANTOWN  SUNNY     73  52  47 NE8       30.07F
CAPITAL CITY   SUNNY     71  52  50 W6        30.08F
HARRISBURG     MOSUNNY   72  53  51 W7        30.07S
YORK           SUNNY     71  53  52 NW7       30.08S
$$

PAZ038>040-043-044-047-048-054-055-060>062-067>071-251600-
EASTERN PENNSYLVANIA

CITY           SKY/WX    TMP DP  RH WIND       PRES   REMARKS
SCRANTON       SUNNY     69  52  54 CALM      30.09S
MOUNT POCONO   SUNNY     67  49  52 CALM      30.10R
ALLENTOWN      SUNNY     72  54  53 CALM      30.06S
QUAKERTOWN*    SUNNY     73  55  53 W3        30.06F
READING        SUNNY     72  54  53 CALM      30.06F
LANCASTER      SUNNY     71  53  52 MISG      30.07S
COATESVILLE    SUNNY     72  55  56 CALM      30.08R
POTTSTOWN      SUNNY     72  56  57 VRB5      30.06F
BLUE BELL      SUNNY     75  59  57 NW3       30.04S
DOYLESTOWN     SUNNY     72  57  59 CALM      30.05R
WILLOW GROVE   NOT AVBL
NORTH PHILA    SUNNY     77  55  46 VRB5      30.05S
PHILADELPHIA   MOSUNNY   76  55  48 NW5       30.04S
$$



USA.gov is the U.S. government's official web portal to all federal, state and local government web resources and services.